Wind_Speed
2 3 6 9 7 3 1 2 7 9 6 3 8 6 9 12 11 12 13 14 14 16 20 26 26 25 23 25 30 32 32 32 28 27 24 22 21 18 18 15 13 10 7 5
6 3 7 3 3 3 3 4 7 10 6 4 2 12 4 12 16 18 18 17 17 14 11 18 23 24 26 30 34 34 33 34 32 30 28 23 23 20 18 17 14 11 9 8
6 5 1 3 1 2 4 5 5 8 2 4 3 8 4 3 7 12 17 20 18 20 17 15 18 26 27 30 37 38 37 36 34 32 29 22 16 16 17 17 17 13 11 8
3 4 3 2 4 6 4 6 9 2 2 4 3 6 7 2 8 9 17 19 19 19 17 14 16 22 27 34 36 37 37 37 35 34 32 31 25 21 21 20 16 17 11 11
6 3 4 4 7 8 10 2 0 3 2 4 1 1 8 4 6 10 12 19 19 20 19 18 16 28 29 29 35 37 37 36 35 35 35 33 28 22 17 18 17 17 14 11
6 2 3 5 3 7 1 5 6 5 3 1 4 5 6 4 6 6 5 15 19 18 18 16 22 22 27 27 30 31 35 38 36 35 37 36 33 28 20 17 17 16 16 15
5 3 5 1 4 3 6 6 3 3 4 6 3 5 10 5 9 8 12 13 17 18 16 14 14 17 22 27 28 31 34 34 37 37 37 37 35 31 24 20 18 19 19 18
3 6 5 7 1 4 1 6 6 6 4 5 4 6 5 4 9 8 5 8 12 17 14 15 15 21 24 28 31 31 34 36 37 38 39 37 35 32 27 22 20 22 23 21
2 3 5 1 3 3 2 1 3 7 3 3 4 7 9 6 9 10 6 4 10 14 15 17 16 23 26 29 34 36 35 36 39 41 40 37 37 34 31 27 24 23 22 22
4 1 2 6 4 4 5 2 2 4 4 1 5 5 5 14 20 12 8 3 2 5 7 8 12 20 27 29 33 39 38 40 44 41 40 40 39 37 33 31 29 26 24 23
3 3 6 1 3 2 6 4 6 5 3 5 1 5 3 7 9 10 7 5 1 6 8 7 8 13 17 20 27 30 36 33 32 36 38 37 38 38 36 34 31 30 27 25
3 4 2 6 4 2 2 2 4 5 2 1 2 6 1 2 7 7 7 8 7 5 4 9 9 16 20 20 21 25 29 33 37 37 37 39 38 37 37 37 35 32 30 28
3 2 3 9 6 5 5 3 3 4 3 2 4 5 1 7 6 8 9 9 8 9 8 3 7 10 17 24 31 37 38 35 27 23 27 30 33 36 38 39 38 35 33 32
7 3 5 6 7 4 4 3 2 4 3 2 6 7 6 9 7 8 9 8 8 8 8 6 7 4 10 17 22 28 28 31 29 28 31 30 33 35 38 39 40 40 39 37
4 1 4 5 6 3 4 6 3 4 5 5 5 6 0 5 5 5 5 6 10 10 9 8 7 5 4 1 6 16 15 22 32 27 24 34 35 33 32 33 37 41 43 42
2 2 4 4 4 6 5 9 7 7 3 7 5 6 3 1 3 4 4 5 5 6 7 8 6 7 10 11 17 16 5 22 33 35 39 35 25 27 34 33 34 39 42 43
3 5 3 4 3 4 5 8 6 3 4 4 4 4 4 2 4 4 5 5 6 5 4 4 3 3 6 4 11 21 5 5 29 33 40 36 25 32 37 34 33 38 42 41
7 6 3 3 2 1 7 3 3 5 2 4 4 4 6 4 4 6 5 5 7 4 3 5 3 6 3 2 2 8 11 9 10 25 35 33 36 40 41 47 41 41 38 46
2 5 3 4 4 5 3 1 2 4 6 5 4 2 4 4 2 5 6 6 6 5 5 7 7 6 10 16 20 23 25 24 19 19 25 31 35 37 43 47 37 29 36 40
6 4 4 2 4 6 6 3 3 2 4 6 6 6 6 4 2 4 6 6 8 11 12 9 4 3 10 17 21 26 28 26 21 23 20 17 27 34 36 45 42 39 40 37
2 2 4 2 3 6 6 6 2 4 6 1 2 2 5 5 6 3 4 6 5 6 5 4 8 10 13 15 17 20 21 20 25 26 24 15 20 30 35 31 30 24 19 9
4 3 4 2 2 5 2 3 1 5 4 1 2 2 3 7 9 6 6 4 4 5 8 7 5 7 9 10 9 12 16 18 19 21 22 20 19 23 26 24 19 20 18 14
3 5 3 7 5 5 3 2 1 2 2 2 1 3 4 6 5 4 5 5 5 7 8 7 9 12 12 8 8 10 14 17 17 15 15 14 14 13 19 23 24 23 23 27
3 2 1 2 3 5 4 2 3 3 3 3 4 3 3 5 7 7 5 5 5 6 8 9 9 8 14 13 13 12 15 15 15 12 9 10 11 13 11 14 15 17 19 19
5 1 3 6 10 4 9 7 8 6 5 5 7 6 8 6 8 7 6 5 3 5 6 7 9 11 14 15 15 16 17 14 15 13 11 10 8 11 13 15 17 23 23 23
5 7 4 7 14 6 9 5 5 7 7 9 8 7 7 6 8 6 7 4 3 5 6 8 11 13 18 20 21 22 20 13 13 13 12 11 10 12 14 16 19 20 18 21
Wind_Direction
38 99 226 216 197 191 322 223 272 276 207 227 233 267 200 179 187 187 178 190 191 205 207 207 217 218 212 216 218 220 217 220 216 215 216 221 222 218 222 225 228 209 212 208
24 230 240 203 171 175 190 260 255 283 202 192 303 254 217 186 210 190 182 191 203 208 194 209 213 214 209 212 219 219 220 219 216 217 216 212 214 218 227 224 220 217 220 202
156 238 106 202 243 212 226 208 238 212 28 223 9 307 281 212 209 191 195 197 198 200 201 203 205 208 209 207 214 217 219 219 216 216 210 206 217 229 225 224 225 221 208 203
229 283 246 173 225 161 282 199 250 245 57 239 75 283 314 326 251 210 195 195 200 201 207 207 205 206 208 215 217 217 219 218 215 215 210 208 213 210 222 222 217 211 209 207
252 243 232 232 222 162 236 123 102 177 141 20 214 37 267 346 295 252 206 198 199 200 197 197 201 209 209 211 217 218 219 217 215 213 214 210 216 224 225 221 217 211 215 208
235 270 216 223 276 183 3 94 57 52 79 63 243 142 287 261 251 289 199 201 194 198 201 202 203 199 204 203 207 210 212 215 215 213 213 214 216 219 222 220 215 211 203 208
329 287 305 295 337 26 73 59 348 356 9 215 36 72 246 260 287 251 266 203 192 196 196 192 186 184 190 189 194 201 206 206 212 214 214 217 220 221 221 220 217 208 201 207
57 345 1 341 142 233 106 153 156 185 201 258 154 232 246 226 320 328 287 180 182 190 194 198 192 189 188 188 189 194 199 203 210 214 217 220 220 222 222 222 221 216 213 215
92 292 319 327 318 116 314 28 179 101 12 56 297 297 312 317 359 354 357 130 178 187 192 195 195 190 186 185 189 195 198 203 210 215 217 218 219 220 222 224 222 219 221 223
202 64 321 292 23 12 84 168 21 0 129 171 307 295 253 334 322 330 321 256 161 216 225 209 193 192 192 189 189 194 205 206 211 215 217 219 219 220 224 224 222 221 222 221
120 101 288 8 53 245 357 14 52 116 92 151 168 266 223 289 305 322 351 27 38 216 204 202 203 193 197 186 186 190 202 206 209 211 214 216 221 223 224 226 225 222 221 219
32 127 248 237 292 298 346 59 115 108 247 99 144 270 255 357 340 346 354 8 358 353 222 186 175 162 156 169 188 194 204 206 213 214 213 217 222 223 226 227 229 227 223 218
166 16 15 352 354 357 43 337 99 96 82 198 131 262 302 27 26 8 5 4 359 4 4 79 144 157 166 175 183 196 204 208 211 213 216 217 220 223 227 231 230 229 226 221
85 111 160 180 212 183 309 311 76 106 90 207 230 287 335 338 4 359 359 1 18 25 19 56 71 110 175 189 192 198 199 199 203 213 215 221 224 224 228 231 232 232 229 226
92 223 189 247 230 218 235 240 274 233 201 168 250 234 353 292 320 317 310 1 28 16 20 19 30 27 50 95 231 224 184 205 222 210 209 231 225 231 232 232 235 234 231 228
31 241 177 271 270 226 264 254 228 238 211 263 276 278 173 270 302 303 326 347 26 7 354 357 4 26 50 63 29 337 235 216 223 225 224 235 208 224 225 225 229 232 233 231
161 142 110 264 329 326 298 233 195 188 186 199 190 238 184 205 252 261 288 306 314 331 339 13 0 19 18 18 139 257 289 182 212 219 234 237 230 213 213 222 227 231 228 226
153 129 134 224 4 236 241 286 232 219 232 233 241 176 189 187 229 269 256 270 288 288 337 322 312 321 6 130 299 324 332 304 255 232 225 220 216 215 221 230 227 218 218 220
171 136 136 165 182 286 297 77 101 168 259 197 243 201 162 138 341 284 226 226 247 259 262 261 277 303 348 6 7 10 5 354 332 291 241 220 211 212 218 224 232 213 214 217
77 72 121 120 158 200 236 277 227 151 261 213 202 203 189 131 124 256 202 199 226 230 231 229 245 341 3 3 3 9 7 2 350 336 311 241 217 209 216 228 242 231 224 224
359 24 177 167 231 292 261 290 322 145 239 21 156 202 172 193 208 261 230 212 230 244 262 313 350 349 339 343 353 358 356 360 351 343 334 300 245 220 218 221 226 232 214 189
197 157 212 122 179 263 349 327 248 224 289 276 22 321 251 255 284 283 281 286 286 282 285 268 278 293 301 301 324 340 344 347 353 356 351 330 287 246 219 209 195 199 188 168
275 189 197 176 218 240 272 187 306 197 255 349 323 309 288 279 262 265 259 266 268 291 305 303 285 282 279 290 308 322 334 335 339 348 353 345 313 252 217 193 185 189 184 194
300 150 192 9 266 237 227 262 220 235 232 279 280 291 296 285 294 271 254 246 250 274 285 288 290 294 302 316 312 309 310 315 317 327 341 336 321 288 242 202 204 209 190 188
206 102 215 261 276 257 270 244 229 252 262 275 268 248 259 258 268 250 275 286 288 301 326 333 328 318 313 321 317 324 305 294 297 309 313 314 301 292 275 253 236 222 210 202
178 208 188 248 264 210 262 249 268 244 253 266 260 278 267 212 250 272 263 246 253 313 335 342 337 330 326 325 324 321 314 288 276 287 297 298 287 267 260 247 241 247 243 223
Height
757 775 784 774 770 768 774 783 783 760 747 762 757 756 753 751 754 759 764 765 766 767 766 772 778 781 786 790 793 795 799 803 808 811 815 818 819 821 824 826 827 829 830 831
774 781 759 757 761 770 777 782 782 759 747 758 754 759 747 750 744 745 754 757 760 761 766 769 772 778 780 783 787 791 794 798 802 806 810 814 816 819 821 824 826 827 828 830
780 765 751 756 761 769 775 781 774 768 752 750 758 766 749 740 739 741 743 743 749 752 756 761 767 770 775 778 780 784 788 791 797 803 808 812 816 817 820 821 823 825 827 829
768 754 753 759 766 766 780 759 759 762 771 793 759 803 766 750 747 739 735 740 743 747 750 754 758 764 768 769 775 780 784 787 792 798 804 807 809 812 815 817 820 823 825 828
770 758 759 765 758 756 765 746 757 762 777 776 776 794 771 756 751 743 735 730 733 737 742 746 750 753 759 766 769 773 778 783 787 792 798 803 807 810 813 816 818 821 824 827
761 746 750 751 741 747 746 756 774 789 795 815 784 789 785 762 744 735 726 723 724 729 734 738 742 748 752 759 764 769 774 777 782 787 792 798 802 807 810 813 815 816 821 824
768 757 750 743 753 748 759 783 818 812 826 819 792 800 771 744 732 728 720 719 717 721 728 732 737 742 748 752 758 763 768 773 777 782 787 792 797 803 807 809 812 815 817 820
799 797 759 745 750 760 765 783 813 820 830 812 799 801 758 732 728 721 711 709 714 719 722 727 729 734 740 747 752 758 763 767 773 778 782 787 793 798 802 806 808 811 813 816
794 784 755 748 747 751 763 783 779 817 825 820 812 781 748 728 727 724 716 715 717 716 716 718 723 727 734 740 745 751 757 762 767 771 777 781 786 792 796 800 804 807 810 813
778 790 765 759 748 750 759 765 791 806 813 809 811 805 792 755 742 734 726 717 719 720 720 720 721 725 727 734 739 745 752 756 760 767 772 776 780 786 791 796 798 801 805 808
772 784 781 766 773 779 781 786 801 810 819 827 830 806 761 759 750 744 732 723 717 716 717 717 719 725 731 735 737 745 749 755 761 765 769 773 776 782 787 792 795 796 799 803
774 794 801 785 770 771 768 777 796 810 802 826 821 802 756 752 749 742 741 729 724 718 712 712 715 721 726 732 737 744 746 750 754 760 764 768 773 777 782 786 791 794 796 799
771 801 818 807 792 774 784 779 790 803 809 809 816 796 751 749 750 746 742 736 730 721 716 711 714 718 721 724 726 729 737 745 757 762 766 769 771 772 776 781 785 790 794 794
771 806 806 821 805 793 786 779 781 792 807 806 806 778 757 758 756 749 744 739 734 729 726 722 721 722 723 725 725 725 733 741 747 751 753 760 765 767 771 774 779 784 788 791
776 796 797 792 789 787 783 779 776 781 781 790 776 778 761 759 759 753 746 740 738 737 734 731 728 727 728 731 735 735 740 743 741 742 749 748 754 763 768 772 774 776 778 780
784 796 794 791 783 788 788 778 778 776 770 781 775 773 756 753 753 750 747 746 743 743 739 734 732 734 734 736 742 748 748 743 737 736 734 737 741 750 759 761 763 768 772 776
787 801 811 807 796 791 796 777 769 759 760 763 775 760 756 756 753 750 747 746 746 744 742 739 737 738 739 740 739 754 744 742 739 740 737 738 740 742 744 744 750 756 759 767
796 801 810 810 797 808 775 759 755 760 755 756 755 753 753 751 750 747 744 745 744 746 741 740 737 735 737 742 742 735 730 734 734 731 729 732 733 735 734 730 731 735 745 748
782 793 807 805 814 793 758 755 755 760 762 750 751 748 749 749 750 747 742 743 742 738 737 739 737 735 731 727 724 723 720 717 717 719 723 723 724 726 726 725 727 725 730 736
786 788 793 814 801 803 772 751 746 753 778 742 745 748 749 751 763 755 738 739 738 737 737 735 734 732 730 727 723 719 718 718 718 716 715 719 722 721 724 722 721 722 723 727
793 797 798 808 801 788 762 749 746 776 773 741 740 743 749 754 744 735 732 732 732 732 732 730 728 728 728 727 725 723 723 723 720 714 710 712 713 713 714 719 721 724 730 710
787 793 800 806 798 792 750 749 759 758 746 741 740 741 743 744 739 737 735 733 733 733 732 732 732 732 732 732 729 726 724 723 720 717 712 709 710 708 709 712 718 719 721 723
788 778 784 785 782 759 752 748 747 749 749 744 743 741 740 738 735 733 733 734 733 733 734 734 735 735 734 731 729 725 724 721 720 719 715 712 709 709 709 710 714 713 714 722
770 773 777 771 761 757 749 745 744 744 742 740 738 738 737 738 735 731 730 730 730 731 731 732 733 733 730 727 726 723 721 719 718 717 715 714 711 709 708 707 712 712 711 709
773 768 774 774 757 756 750 746 743 741 739 739 738 736 735 734 733 732 730 729 729 729 729 729 729 728 725 723 720 717 715 714 714 713 711 708 708 706 707 708 707 711 708 708
766 767 776 766 745 753 748 740 737 738 736 734 735 733 730 731 731 729 728 727 726 726 727 726 726 724 720 717 714 712 711 709 708 708 707 704 703 703 703 704 704 703 704 707